PAHOPAMR

Guest
Details From PAHO - HOMER
To PAMR - Merrill Fld
Flight Number -
Tags generated
Created
Modified
Stats Distance 106 nm / 196 km
Max Altitude 11,300 ft / 3,444 m
Waypoints 5
Social Downloads 0
Likes 0
Share VATSIM

Download

Looking for another format? Having issues loading an existing format? Contact us
Advertisement - Login to hide

Notes

Basic altitude profile: - Ascent Rate: 2500ft/min - Ascent Speed: 250kts - Cruise Altitude: 15000ft - Cruise Speed: 420kts - Descent Rate: 1500ft/min - Descent Speed: 250kts Options: - Use NATs: yes - Use PACOTS: yes - Use low airways: yes - Use high airways: no

Route

PAHO ORAIL V438 NAPTO PAMR

ID Type Via Altitude Latitude Longitude Leg Dist Tot Dist Heading (true) Name
O PAHO APT - 0 ft / 0 m 59.64555˚ -151.47659˚ - 0 nm - HOMER
ORAIL FIX - 11,300 ft / 3,444 m 60.37144˚ -150.79602˚ 48 nm 48 nm 25° / 25° -
SKILA FIX V438 (AWY-LO) 9,500 ft / 2,896 m 60.49724˚ -150.66712˚ 8 nm 56 nm 27° / 27° -
NAPTO FIX V438 (AWY-LO) 6,300 ft / 1,920 m 60.78820˚ -150.36452˚ 19 nm 76 nm 27° / 27° -
O PAMR APT - 0 ft / 0 m 61.21292˚ -149.84481˚ 29 nm 105 nm 30° / 31° Merrill Fld

Altitude Profile

Advertisement - Login to hide

PAHO

Details ICAO PAHO (HOM)
Name HOMER
Region USA (Alaska)
Timezone America/Anchorage (UTC-8.0)
Stats Elevation 84 ft / 26 m (AMSL)
Location 59.645547° -151.476589°
Runways 1
Magnetic Variation 15.357° E

METAR

PAHO 211653Z 07013KT 10SM BKN060 10/02 A2930 RMK AO2 SLP923 T01000017

Decode

TAF

PAHO 211140Z 2112/2212 06006KT P6SM VCSH SCT035 OVC050 FM211300 05007KT P6SM -RA SCT025 OVC035 FM220200 24006KT P6SM -SHRA SCT035 OVC050

Decode

Departure Runways

ID Width Length Bearing (true) Bearing (mag) Surface Threshold Offset Overrun Length
03 151 ft / 46 m 6,706 ft / 2,044 m 54.97° 39.61° Asphalt 801 ft / 244 m 0 ft / 0 m
21 151 ft / 46 m 6,706 ft / 2,044 m 234.99° 219.63° Asphalt 0 ft / 0 m 0 ft / 0 m

PAMR

Details ICAO PAMR (MRI)
Name Merrill Fld
Region USA (Alaska)
Timezone America/Anchorage (UTC-8.0)
Stats Elevation 137 ft / 42 m (AMSL)
Location 61.212917° -149.844813°
Runways 3
Magnetic Variation 16.131° E

METAR

PAMR 211653Z 25003KT 10SM SCT095 09/05 A2940 RMK AO2 SLP955 T00890050

Decode

TAF

Not found

Destination Runways

ID Width Length Bearing (true) Bearing (mag) Surface Threshold Offset Overrun Length
04 60 ft / 18 m 1,994 ft / 608 m 66.10° 49.97° Gravel 0 ft / 0 m 0 ft / 0 m
07 100 ft / 30 m 3,986 ft / 1,215 m 90.01° 73.88° Asphalt 0 ft / 0 m 0 ft / 0 m
16 75 ft / 23 m 2,635 ft / 803 m 180.03° 163.90° Asphalt 0 ft / 0 m 0 ft / 0 m
22 60 ft / 18 m 1,994 ft / 608 m 246.11° 229.98° Gravel 0 ft / 0 m 0 ft / 0 m
25 100 ft / 30 m 3,986 ft / 1,215 m 270.03° 253.90° Asphalt 0 ft / 0 m 0 ft / 0 m
34 75 ft / 23 m 2,635 ft / 803 m 0.03° 343.90° Asphalt 0 ft / 0 m 0 ft / 0 m